This is the latest recevied weather packets stored in our database for station/object KE1THD. If no packets are shown the sender has not sent any weather packets the latest 1 day(s).
| Time | Temp. | Humidity | Pressure | Rain* | Wind** | Luminosity | Snow |
|---|---|---|---|---|---|---|---|
| 1778043566 | 9.44° C | 53% | 1011.6 hPa | 0 mm | 1.79 m/s, 356° | 0 W/m² | - |
| 1778043263 | 9.44° C | 53% | 1011.7 hPa | 0 mm | 2.68 m/s, 357° | 0 W/m² | - |
| 1778042960 | 9.44° C | 53% | 1011.6 hPa | 0 mm | 2.24 m/s, 326° | 0 W/m² | - |
| 1778042658 | 9.44° C | 52% | 1011.7 hPa | 0 mm | 1.79 m/s, 9° | 0 W/m² | - |
| 1778042354 | 9.44° C | 52% | 1011.5 hPa | 0 mm | 2.24 m/s, 349° | 0 W/m² | - |
| 1778042052 | 10° C | 51% | 1011.2 hPa | 0 mm | 3.13 m/s, 0° | 0 W/m² | - |
| 1778041750 | 10° C | 52% | 1011.1 hPa | 0 mm | 1.79 m/s, 14° | 0 W/m² | - |
| 1778041449 | 10° C | 51% | 1011.2 hPa | 0 mm | 2.68 m/s, 13° | 0 W/m² | - |
| 1778041147 | 10° C | 50% | 1011.6 hPa | 0 mm | 2.24 m/s, 56° | 0 W/m² | - |
| 1778040844 | 10° C | 50% | 1011.4 hPa | 0 mm | 2.68 m/s, 43° | 0 W/m² | - |
| 1778040541 | 10.56° C | 50% | 1011.4 hPa | 0 mm | 1.34 m/s, 32° | 0 W/m² | - |
| 1778040239 | 10.56° C | 50% | 1011.2 hPa | 0 mm | 2.24 m/s, 22° | 0 W/m² | - |
| 1778039934 | 10.56° C | 50% | 1011.6 hPa | 0 mm | 1.79 m/s, 7° | 0 W/m² | - |
| 1778039632 | 10.56° C | 49% | 1011.6 hPa | 0 mm | 1.79 m/s, 349° | 0 W/m² | - |
| 1778039329 | 10.56° C | 49% | 1011.3 hPa | 0 mm | 1.34 m/s, 311° | 0 W/m² | - |
| 1778039026 | 10.56° C | 49% | 1011.3 hPa | 0 mm | 2.24 m/s, 13° | 0 W/m² | - |
| 1778038723 | 10.56° C | 48% | 1011.4 hPa | 0 mm | 1.34 m/s, 334° | 0 W/m² | - |
| 1778038420 | 10.56° C | 49% | 1011.4 hPa | 0 mm | 1.34 m/s, 316° | 0 W/m² | - |
| 1778038117 | 10.56° C | 50% | 1011.1 hPa | 0 mm | 0.89 m/s, 20° | 0 W/m² | - |
| 1778037813 | 10.56° C | 51% | 1011 hPa | 0 mm | 0.45 m/s, 255° | 0 W/m² | - |
| 1778037511 | 10.56° C | 51% | 1011.1 hPa | 0 mm | 0.45 m/s, 223° | 0 W/m² | - |
| 1778037208 | 10.56° C | 51% | 1011.1 hPa | 0 mm | 0 m/s | 0 W/m² | - |
| 1778036905 | 11.11° C | 51% | 1011.1 hPa | 0 mm | 0 m/s | 0 W/m² | - |
| 1778036603 | 11.11° C | 51% | 1010.9 hPa | 0 mm | 0.45 m/s, 212° | 0 W/m² | - |
| 1778036300 | 10.56° C | 54% | 1010.9 hPa | 0 mm | 0 m/s | 0 W/m² | - |
* Rain latest hour (hover to see other rain measurements)
** Current wind speed in m/s (hover to see current wind gust speed)